Regional Weather Roundup
Issued by NWS

Home | Current Version | Previous Version | Graphics & Text | Print | Product List | Glossary On
Versions: 1 2 3 4 5 6 7 8 9 10 11 12 13 14 15 16 17 18 19 20 21 22 23 24 25 26 27 28 29 30 31 32 33 34 35 36 37 38 39 40 41 42 43 44 45 46 47 48 49 50
596
ASUS43 KIND 272059
RWRIN

WEATHER ROUNDUP FOR INDIANA
NATIONAL WEATHER SERVICE INDIANAPOLIS IN
400 PM EST MON FEB 27 2017

NOTE: "FAIR" INDICATES FEW OR NO CLOUDS BELOW 12,000 FEET WITH NO
SIGNIFICANT WEATHER AND/OR OBSTRUCTIONS TO VISIBILITY.

* - STATION DOES NOT REPORT WEATHER SUCH AS PRECIPITATION OR FOG.

+ - STATION NOT QUALITY CONTROLLED BY THE NATIONAL WEATHER SERVICE.
    USE DATA WITH CAUTION...ESPECIALLY DEWPOINT AND RELATIVE
    HUMIDITY OBSERVATIONS.

INZ001>003-010>013-019-020-272200-
NORTHWEST INDIANA

CITY           SKY/WX    TMP DP  RH WIND       PRES   REMARKS
GARY /AIRPORT/ MOSUNNY   54  30  40 S9        30.10F
KNOX *+        CLOUDY    50  10  20 S9        30.13F

$$

LMZ046-743>745-272200-
SOUTHERN LAKE MICHIGAN

STATION/POSITION TIME  TEMP    WIND        PRES    WAVE
                       AIR SEA DIR/SP/G            HT
                 (UTC) (F)     (DEG/KT/KT) (MB)    (FT)
BURNS HARBOR     2040   45     260/  3/  6 1020.3F
MICHIGAN CITY    2030   39      30/  8/  9   N/A

$$

INZ004-005-014>016-021>024-272200-
NORTH CENTRAL INDIANA

CITY           SKY/WX    TMP DP  RH WIND       PRES   REMARKS
ELKHART        MOSUNNY   50  32  50 SW8       30.15S
GOSHEN         CLOUDY    51  32  48 SW8       30.15S
SOUTH BEND     PTSUNNY   50  33  52 S12       30.14F

$$

INZ006>009-017-018-025>027-272200-
NORTHEAST INDIANA

CITY           SKY/WX    TMP DP  RH WIND       PRES   REMARKS
ANGOLA *+      PTSUNNY   48  36  61 S7        30.15F
FORT WAYNE     CLOUDY    50  32  50 S12       30.17S
KENDALLVILLE + CLOUDY    48  34  58 S9        30.16S

$$

INZ028-029-035-036-043>045-051>053-272200-
WEST CENTRAL INDIANA

CITY           SKY/WX    TMP DP  RH WIND       PRES   REMARKS
LAFAYETTE      CLOUDY    53  36  52 SE9       30.12F
TERRE HAUTE    CLOUDY    53  40  61 SE9       30.13R

$$

INZ030>032-037>040-046>048-054>057-064-065-272200-
CENTRAL INDIANA

CITY           SKY/WX    TMP DP  RH WIND       PRES   REMARKS
ANDERSON       PTSUNNY   50  39  66 SE12      30.17S
COLUMBUS       CLOUDY    48  45  87 S9        30.17F
GREENWOOD *+   CLOUDY    49  42  75 SE7       30.16F
INDIANAPOLIS   PTSUNNY   50  39  66 SE13      30.14S
-EAGLE CREEK   MOSUNNY   51  38  60 SE9       30.14S
KOKOMO +       CLOUDY    51  39  63 S12       30.15F
MT COMFORT *+  CLOUDY    48  39  71 S7        30.16F
SHELBYVILLE    CLOUDY    50  41  71 S8        30.15F

$$

INZ033-034-041-042-049-050-058-059-272200-
EAST CENTRAL INDIANA

CITY           SKY/WX    TMP DP  RH WIND       PRES   REMARKS
MUNCIE         CLOUDY    49  38  65 S10       30.17S

$$

INZ060-061-067>069-081>083-085>088-272200-
SOUTHWEST INDIANA

CITY           SKY/WX    TMP DP  RH WIND       PRES   REMARKS
EVANSVILLE     CLOUDY    59  46  62 SE5       30.12F
HUNTINGBURG *+ CLOUDY    54  46  76 E5        30.14F

$$

INZ062-063-066-070>080-084-089>092-272200-
SOUTH CENTRAL AND SOUTHEAST INDIANA

CITY           SKY/WX    TMP DP  RH WIND       PRES   REMARKS
BLOOMINGTON    CLOUDY    52  41  66 S9        30.14S
MADISON *+     CLOUDY    50  45  81 E5        30.19S
SEYMOUR +      CLOUDY    52  45  76 SE6       30.17F

$$





USA.gov is the U.S. government's official web portal to all federal, state and local government web resources and services.